This is the latest recevied weather packets stored in our database for station/object HI3FAM-13. If no packets are shown the sender has not sent any weather packets the latest 10 day(s).
| Time | Temp. | Humidity | Pressure | Rain* | Wind** | Luminosity | Snow |
|---|---|---|---|---|---|---|---|
| 1788047391 | 28.89° C | 71% | 1015 hPa | 0 mm | - | - | - |
| 1788046790 | 28.89° C | 70% | 1015 hPa | 0 mm | - | - | - |
| 1788046189 | 29.44° C | 69% | 1014 hPa | 0 mm | - | - | - |
| 1788045588 | 29.44° C | 69% | 1014 hPa | 0 mm | - | - | - |
| 1788044986 | 30° C | 66% | 1014 hPa | 0 mm | - | - | - |
| 1788044386 | 30° C | 66% | 1014 hPa | 0 mm | - | - | - |
| 1788043784 | 30.56° C | 65% | 1014 hPa | 0 mm | - | - | - |
| 1788043168 | 31.11° C | 63% | 1014 hPa | 0 mm | - | - | - |
| 1788042567 | 31.67° C | 60% | 1013 hPa | 0 mm | - | - | - |
| 1788041964 | 31.67° C | 59% | 1013 hPa | 0 mm | - | - | - |
| 1788041363 | 32.22° C | 57% | 1013 hPa | 0 mm | - | - | - |
| 1788040762 | 32.22° C | 56% | 1013 hPa | 0 mm | - | - | - |
| 1788040160 | 32.22° C | 55% | 1013 hPa | 0 mm | - | - | - |
| 1788039559 | 32.22° C | 54% | 1013 hPa | 0 mm | - | - | - |
| 1788038958 | 32.78° C | 53% | 1013 hPa | 0 mm | - | - | - |
| 1788038357 | 32.78° C | 52% | 1013 hPa | 0 mm | - | - | - |
| 1788037756 | 33.89° C | 50% | 1013 hPa | 0 mm | - | - | - |
| 1788037155 | 33.89° C | 50% | 1013 hPa | 0 mm | - | - | - |
| 1788036554 | 33.89° C | 50% | 1013 hPa | 0 mm | - | - | - |
| 1788035953 | 33.89° C | 50% | 1013 hPa | 0 mm | - | - | - |
| 1788035352 | 33.89° C | 50% | 1013 hPa | 0 mm | - | - | - |
| 1788034751 | 34.44° C | 50% | 1013 hPa | 0 mm | - | - | - |
| 1788034150 | 35° C | 51% | 1013 hPa | 0 mm | - | - | - |
| 1788033549 | 35° C | 51% | 1013 hPa | 0 mm | - | - | - |
| 1788032946 | 35° C | 55% | 1013 hPa | 0 mm | - | - | - |
* Rain latest hour (hover to see other rain measurements)
** Current wind speed in m/s (hover to see current wind gust speed)